| time (UTC) | temp F | wind direction | speed MPH | gust MPH | rain 1hr in | rain 24hr in | rain mn in | humidity % | barometer mb |
| 20260831140605 | 56 | 135 | 1.0 | 6.0 | 0.00 | 0.48 | 0.00 | 70 | 1024.1 |
| 20260831140112 | 56 | 138 | 1.0 | 5.0 | 0.00 | 0.48 | 0.00 | 70 | 1024.2 |
| 20260831130606 | 54 | 214 | 0.0 | 5.0 | 0.00 | 0.48 | 0.00 | 73 | 1023.9 |
| 20260831120111 | 54 | 128 | 0.0 | 0.0 | 0.00 | 0.48 | 0.00 | 73 | 1023.4 |
| 20260831110605 | 55 | 176 | 0.0 | 5.0 | 0.00 | 0.48 | 0.00 | 70 | 1023.1 |
| 20260831110111 | 55 | 181 | 0.0 | 5.0 | 0.00 | 0.48 | 0.00 | 70 | 1023.1 |
| 20260831100111 | 56 | 142 | 1.0 | 7.0 | 0.00 | 0.48 | 0.00 | 70 | 1023.2 |
| 20260831090605 | 55 | 155 | 1.0 | 9.0 | 0.00 | 0.48 | 0.00 | 74 | 1023.0 |
| 20260831090111 | 55 | 192 | 2.0 | 9.0 | 0.00 | 0.48 | 0.00 | 74 | 1023.1 |
| 20260831080605 | 55 | 169 | 1.0 | 7.0 | 0.00 | 0.48 | 0.00 | 72 | 1023.5 |
| 20260831080111 | 56 | 154 | 1.0 | 7.0 | 0.00 | 0.48 | 0.00 | 71 | 1023.4 |
| 20260831070605 | 55 | 80 | 0.0 | 1.0 | 0.00 | 0.48 | 0.00 | 68 | 1023.8 |
| 20260831070110 | 55 | 58 | 0.0 | 0.0 | 0.00 | 0.48 | 0.00 | 69 | 1023.8 |
| 20260831060605 | 55 | 35 | 0.0 | 0.0 | 0.00 | 0.48 | 0.00 | 73 | 1022.5 |
| 20260831060110 | 55 | 35 | 0.0 | 0.0 | 0.00 | 0.48 | 0.00 | 72 | 1022.5 |
| 20260831050606 | 55 | 213 | 0.0 | 0.0 | 0.00 | 0.48 | 0.48 | 72 | 1022.5 |
| 20260831040606 | 56 | 192 | 0.0 | 0.0 | 0.00 | 0.48 | 0.48 | 67 | 1022.7 |
| 20260831040111 | 55 | 192 | 0.0 | 0.0 | 0.00 | 0.48 | 0.48 | 66 | 1022.7 |
| 20260831030606 | 59 | 192 | 0.0 | 0.0 | 0.00 | 0.48 | 0.48 | 55 | 1021.9 |
| 20260831030112 | 60 | 192 | 0.0 | 0.0 | 0.00 | 0.48 | 0.48 | 55 | 1021.7 |
| 20260831020607 | 63 | 188 | 0.0 | 6.0 | 0.00 | 0.48 | 0.48 | 46 | 1021.3 |
| 20260831020112 | 64 | 128 | 1.0 | 6.0 | 0.00 | 0.48 | 0.48 | 50 | 1021.1 |
| 20260831010606 | 67 | 274 | 1.0 | 3.0 | 0.00 | 0.48 | 0.48 | 38 | 1021.0 |
| 20260831010112 | 67 | 272 | 1.0 | 5.0 | 0.00 | 0.48 | 0.48 | 38 | 1020.9 |
| 20260831000606 | 69 | 278 | 3.0 | 14.0 | 0.00 | 0.48 | 0.48 | 39 | 1020.0 |
| 20260831000112 | 69 | 272 | 6.0 | 14.0 | 0.00 | 0.48 | 0.48 | 39 | 1020.0 |
| 20260830230606 | 68 | 219 | 0.0 | 3.0 | 0.00 | 0.48 | 0.48 | 50 | 1019.0 |
| 20260830230112 | 68 | 229 | 0.0 | 3.0 | 0.00 | 0.48 | 0.48 | 52 | 1019.0 |
| 20260830220112 | 64 | 262 | 0.0 | 1.0 | 0.02 | 0.48 | 0.48 | 72 | 1019.4 |
| 20260830210606 | 59 | 252 | 1.0 | 7.0 | 0.31 | 0.47 | 0.47 | 74 | 1019.7 |
| 20260830210112 | 58 | 312 | 2.0 | 7.0 | 0.30 | 0.46 | 0.46 | 73 | 1019.8 |
| 20260830200606 | 63 | 319 | 0.0 | 2.0 | 0.16 | 0.16 | 0.16 | 72 | 1019.2 |
| 20260830200112 | 63 | 319 | 0.0 | 3.0 | 0.16 | 0.16 | 0.16 | 69 | 1019.3 |
| 20260830190606 | 74 | 19 | 5.0 | 15.0 | 0.00 | 0.00 | 0.00 | 33 | 1020.1 |
| 20260830190111 | 76 | 18 | 5.0 | 14.0 | 0.00 | 0.00 | 0.00 | 27 | 1020.1 |
| 20260830180605 | 79 | 207 | 2.0 | 10.0 | 0.00 | 0.00 | 0.00 | 27 | 1020.4 |
| 20260830180112 | 79 | 196 | 3.0 | 10.0 | 0.00 | 0.00 | 0.00 | 27 | 1020.6 |
| 20260830170606 | 74 | 200 | 2.0 | 12.0 | 0.00 | 0.00 | 0.00 | 35 | 1021.3 |
| 20260830170111 | 73 | 212 | 2.0 | 12.0 | 0.00 | 0.00 | 0.00 | 36 | 1021.3 |
| 20260830160605 | 69 | 15 | 5.0 | 9.0 | 0.00 | 0.00 | 0.00 | 42 | 1021.2 |
| 20260830160112 | 69 | 15 | 3.0 | 10.0 | 0.00 | 0.00 | 0.00 | 44 | 1021.2 |
| 20260830150606 | 66 | 14 | 2.0 | 10.0 | 0.00 | 0.00 | 0.00 | 52 | 1021.0 |
| 20260830150111 | 65 | 15 | 2.0 | 10.0 | 0.00 | 0.00 | 0.00 | 53 | 1021.0 |